Home   Weather   Fairfield Beach   Past weeks
Flag for USA

Past Weather in Fairfield Beach, Connecticut, USA — Yesterday and Last 2 Weeks

Now
31 °F

Clear.


Feels Like: 24 °F
Forecast: 46 / 28 °F
Wind: 7 mph from South

Location: Sikorsky Memorial Airport

Current Time: Dec 12, 2019 at 10:26:26 pm

Latest Report: Dec 12, 2019 at 8:52 pm


Visibility: 10 mi

Pressure: 30.69 "Hg

Humidity: 57%

Dew Point: 17 °F

Location of Fairfield BeachLocation

Past Weather in Fairfield Beach — Graph

°F

Fairfield Beach Temperature Yesterday

Maximum temperature yesterday: 40 °F (at 12:52 am)
Minimum temperature yesterday: 30 °F (at 9:37 am)
Average temperature yesterday: 34 °F

High & Low Weather Summary for the Past Weeks

 TemperatureHumidityPressure
High55 °F (Dec 9, 10:52 am)100% (Dec 9, 2:17 pm)30.74 "Hg (Dec 9, 2:17 pm)
Low20 °F (Dec 8, 6:52 am)22% (Nov 30, 1:52 pm)29.42 "Hg (Dec 3, 12:52 pm)
Average38 °F71%29.97 "Hg
* Reported Nov 27 8:52 pm — Dec 12 8:52 pm, Fairfield Beach. Weather by CustomWeather, © 2019

Note: Actual official high and low records may vary slightly from our data, if they occured in-between our weather recording intervals... More about our weather records

Fairfield Beach Weather History for the Previous 24 Hours

Scroll right to see more
 ConditionsComfort  
Time TempWeatherWind HumidityBarometerVisibility
8:52 pm
Thu, Dec 12
31 °FClear.7 mph57%30.69 "Hg10 mi
7:52 pm30 °FClear.5 mph59%30.68 "Hg10 mi
6:52 pm30 °FClear.5 mph61%30.70 "Hg10 mi
5:52 pm30 °FClear.No wind61%30.71 "Hg10 mi
4:52 pm31 °FChilly.3 mph59%30.70 "Hg10 mi
3:52 pm33 °FSunny.3 mph49%30.69 "Hg10 mi
2:52 pm33 °FSunny.3 mph49%30.69 "Hg10 mi
1:52 pm34 °FSunny.6 mph46%30.69 "Hg10 mi
12:52 pm34 °FSunny.9 mph44%30.70 "Hg10 mi
11:52 am32 °FSunny.8 mph45%30.71 "Hg10 mi
10:52 am31 °FSunny.9 mph45%30.73 "Hg10 mi
9:52 am30 °FSunny.5 mph43%30.74 "Hg10 mi
8:52 am27 °FSunny.9 mph51%30.72 "Hg10 mi
7:52 am25 °FSunny.9 mph53%30.71 "Hg10 mi
6:52 am24 °FClear.7 mph60%30.69 "Hg10 mi
5:52 am24 °FClear.6 mph62%30.66 "Hg10 mi
4:52 am25 °FClear.6 mph53%30.63 "Hg10 mi
3:52 am26 °FClear.7 mph52%30.60 "Hg10 mi
2:52 am28 °FClear.7 mph53%30.57 "Hg10 mi
1:52 am29 °FClear.7 mph58%30.53 "Hg10 mi
12:52 am31 °FClear.20 mph52%30.48 "Hg10 mi
11:52 pm
Wed, Dec 11
31 °FClear.7 mph57%30.45 "Hg10 mi
10:52 pm32 °FClear.12 mph56%30.41 "Hg10 mi
Weather by CustomWeather, © 2019

See weather overview

Advertising